FW3123 Weather Reports


time (UTC)temp
C
wind
direction
speed
KPH
gust
KPH
rain 1hr
cm
rain 24hr
cm
rain mn
cm
humidity
%
barometer
mb
20260906130056 21 107 11.3 17.7 0.00 0.00 0.00 83 1022.9
20260906124547 21 98 4.8 11.3 0.00 0.00 0.00 85 1023.1
20260906123047 20 79 4.8 8.0 0.00 0.00 0.00 88 1023.0
20260906121538 20 82 1.6 6.4 0.00 0.00 0.00 92 1022.8
20260906120034 -17 0.0 0.0 0.00 0.00 0.00 1022.2
20260906114530 -17 0.0 0.0 0.00 0.00 0.00 1022.1
20260906113026 -17 0.0 0.0 0.00 0.00 0.00 1021.8
20260906111521 -17 0.0 0.0 0.00 0.00 0.00 1021.7
20260906110016 -17 0.0 0.0 0.00 0.00 0.00 1021.6
20260906104513 -17 0.0 0.0 0.00 0.00 0.00 1021.6
20260906103008 -17 0.0 0.0 0.00 0.00 0.00 1021.5
20260906101504 -17 0.0 0.0 0.00 0.00 0.00 1021.5
20260906100111 -17 0.0 0.0 0.00 0.00 0.00 1021.1
20260906094602 -17 0.0 0.0 0.00 0.00 0.00 1021.1
20260906093057 -17 0.0 0.0 0.00 0.00 0.00 1021.2
20260906091546 -17 0.0 0.0 0.00 0.00 0.00 1021.2
20260906090044 -17 0.0 0.0 0.00 0.00 0.00 1021.1
20260906084547 -17 0.0 0.0 0.00 0.00 0.00 1021.1
20260906083034 -17 0.0 0.0 0.00 0.00 0.00 1021.0
20260906081530 -17 0.0 0.0 0.00 0.00 0.00 1021.0
20260906080026 18 308 1.6 4.8 0.00 0.00 0.00 1020.9
20260906074523 18 308 0.0 4.8 0.00 0.00 0.00 95 1020.8
20260906073027 18 308 1.6 3.2 0.00 0.00 0.00 95 1020.8
20260906071522 18 308 1.6 4.8 0.00 0.00 0.00 95 1020.8
20260906070020 18 308 0.0 3.2 0.00 0.00 0.00 94 1020.7
20260906064527 18 308 0.0 3.2 0.00 0.00 0.00 94 1020.7
20260906063019 18 308 0.0 4.8 0.00 0.00 0.00 94 1020.8
20260906061518 18 308 1.6 3.2 0.00 0.00 0.00 94 1020.9
20260906060022 18 308 1.6 4.8 0.00 0.00 0.00 94 1020.7
20260906054517 18 308 1.6 4.8 0.00 0.00 0.00 94 1020.7
20260906053019 18 308 0.0 4.8 0.00 0.00 0.00 93 1020.6
20260906051510 19 341 1.6 6.4 0.00 0.00 0.00 93 1020.6
20260906050008 19 350 3.2 6.4 0.00 0.00 0.00 93 1020.5
20260906044506 19 11 1.6 6.4 0.00 0.00 0.00 92 1020.3
20260906043004 20 333 3.2 6.4 0.00 0.00 0.00 92 1020.2
20260906041501 20 26 4.8 9.7 0.00 0.00 0.00 91 1020.0
20260906040100 20 24 6.4 9.7 0.00 0.00 0.00 91 1020.0
20260906034559 20 13 4.8 8.0 0.00 0.00 0.00 90 1019.9
20260906033101 20 30 4.8 9.7 0.00 0.00 0.00 90 1019.9
20260906031601 21 37 4.8 9.7 0.00 0.00 0.00 90 1019.9
20260906030056 21 57 4.8 9.7 0.00 0.00 0.00 90 1019.9
20260906024555 20 66 6.4 17.7 0.00 0.00 0.00 90 1019.6
20260906023055 20 65 9.7 14.5 0.00 0.00 0.00 90 1019.6
20260906021558 21 50 4.8 14.5 0.00 0.00 0.00 89 1019.7
20260906020054 21 46 6.4 16.1 0.00 0.00 0.00 89 1019.9
20260906014549 21 80 4.8 12.9 0.00 0.00 0.00 89 1019.6
20260906013047 21 36 8.0 20.9 0.00 0.00 0.00 88 1019.6
20260906011553 21 54 9.7 20.9 0.00 0.00 0.00 88 1019.7
20260906010043 21 25 6.4 16.1 0.00 0.00 0.00 88 1019.6
20260906004544 21 29 4.8 9.7 0.00 0.00 0.00 88 1019.4
20260906003041 21 32 8.0 16.1 0.00 0.00 0.00 88 1019.2
20260906001541 21 17 9.7 24.1 0.00 0.00 0.00 88 1019.3
20260906000040 21 63 8.0 19.3 0.00 0.00 0.00 89 1019.2
20260905234637 21 28 11.3 25.7 0.00 0.00 0.00 89 1019.4
20260905233053 21 25 14.5 25.7 0.00 0.00 0.00 89 1019.4
20260905231548 22 45 12.9 24.1 0.00 0.00 0.00 88 1019.2
20260905230032 22 36 16.1 25.7 0.00 0.00 0.00 89 1019.2
20260905224530 22 54 9.7 25.7 0.00 0.00 0.00 88 1018.9
20260905223030 22 35 17.7 27.4 0.00 0.00 0.00 86 1018.9
20260905221535 22 36 12.9 22.5 0.00 0.00 0.00 85 1018.8
20260905220025 22 57 14.5 22.5 0.00 0.00 0.00 85 1018.6
20260905214524 23 74 11.3 19.3 0.00 0.00 0.00 83 1018.4
20260905213032 23 13 11.3 19.3 0.00 0.00 0.00 82 1018.1
20260905211523 24 42 11.3 24.1 0.00 0.00 0.00 83 1017.8
20260905210028 24 56 8.0 24.1 0.00 0.00 0.00 82 1017.9
20260905204523 24 57 14.5 20.9 0.00 0.00 0.00 83 1017.9
20260905203020 25 49 14.5 20.9 0.00 0.00 0.00 81 1017.8
20260905201526 25 38 11.3 19.3 0.00 0.00 0.00 81 1017.9
20260905200019 25 12 8.0 20.9 0.00 0.00 0.00 84 1018.1
20260905194519 26 72 12.9 24.1 0.00 0.00 0.00 78 1018.1
20260905193018 26 27 12.9 22.5 0.00 0.00 0.00 79 1017.9
20260905191517 25 74 6.4 14.5 0.00 0.00 0.00 79 1018.1
20260905190016 25 58 6.4 17.7 0.00 0.00 0.00 79 1018.1
20260905184517 25 28 3.2 14.5 0.00 0.00 0.00 83 1018.3
20260905183012 25 70 8.0 17.7 0.00 0.00 0.00 83 1018.5
20260905181511 25 57 9.7 17.7 0.00 0.00 0.00 83 1018.4
20260905180010 25 25 8.0 17.7 0.00 0.00 0.00 83 1018.3
20260905174512 24 26 8.0 17.7 0.00 0.00 0.00 86 1018.4
20260905173017 23 13 8.0 17.7 0.00 0.00 0.00 86 1018.5
20260905171504 23 14 9.7 16.1 0.00 0.00 0.00 87 1018.5
20260905170003 23 19 9.7 17.7 0.00 0.00 0.00 87 1018.6
20260905164501 23 16 11.3 24.1 0.00 0.00 0.00 87 1018.7
20260905163200 24 53 8.0 17.7 0.00 0.00 0.00 86 1018.6
20260905161559 23 37 9.7 16.1 0.00 0.00 0.00 86 1018.6
20260905160054 23 41 11.3 17.7 0.00 0.41 0.00 86 1018.7
20260905154553 23 9 8.0 16.1 0.00 0.41 0.00 87 1018.4
20260905153051 23 68 8.0 17.7 0.00 0.41 0.00 86 1018.6
20260905151548 23 52 11.3 20.9 0.00 0.41 0.00 88 1018.3
20260905150046 23 51 9.7 17.7 0.00 0.46 0.00 88 1018.2
20260905144546 23 65 6.4 16.1 0.00 0.46 0.00 86 1018.0
20260905143044 23 86 11.3 17.7 0.00 0.46 0.00 87 1017.6
20260905141547 23 45 4.8 19.3 0.00 0.46 0.00 89 1017.8
20260905140041 23 68 4.8 14.5 0.00 0.46 0.00 89 1017.7
20260905134539 23 74 6.4 14.5 0.00 0.46 0.00 89 1017.6
20260905133036 -17 0.0 0.0 0.00 0.46 0.00 1017.8
20260905131546 -17 0.0 0.0 0.00 0.46 0.00 1017.9